[[{"header":{"parameterUnit":"m.s-1","parameterCategory":1,"la1":30.2992,"la2":30.254,"lo1":-89.0895,"lo2":-89.0443,"dy":0.0025,"dx":0.0025,"nx":19,"ny":19,"refTime":"2026-04-19T09:00:00:Z","depth":0,"parameterNumber":2,"parameterNumberName":"U-component_of_WINDS"},"data":[0,0,0,-4.1503,-4.1508,-4.1726,-4.1726,-4.2054,-4.2057,0,0,0,0,0,0,0,0,0,0,0,-4.1467,-4.147,-4.1502,-4.1509,-4.1726,-4.1727,-4.2053,-4.2057,0,0,0,0,0,0,0,0,0,0,0,-4.1465,-4.1469,-4.1473,-4.1509,-4.1726,-4.1727,-4.2052,-4.1871,0,0,0,0,0,0,0,0,0,0,-4.1651,-4.1646,-4.1468,-4.1473,-4.1511,-4.1726,-4.1727,-4.1861,-4.1882,-4.1976,0,-4.2065,0,-4.2067,-4.2082,-4.2083,0,0,0,-4.1488,-4.1629,-4.1661,-4.1474,-4.1513,-4.1725,-4.1622,-4.1873,-4.1896,-4.2004,-4.2069,-4.208,-4.2072,-4.2084,-4.2086,-4.2694,-4.2698,0,0,-4.1476,-4.1522,-4.1645,-4.1678,-4.1646,-4.1615,-4.1629,-4.1886,-4.1961,-4.207,-4.2087,-4.2077,-4.2087,-4.209,-4.269,-4.2695,0,0,0,-4.1455,-4.1514,-4.1539,-4.1666,-4.1701,-4.1622,-4.1638,-4.195,-4.1954,-4.209,-4.2081,-4.2089,-4.2094,-4.2686,-4.2692,-4.2928,0,0,0,-4.1447,-4.1502,-4.1535,-4.1566,-4.1698,-4.1828,-4.1697,-4.1936,-4.1964,-4.208,-4.2089,-4.2097,-4.2682,-4.2689,-4.2913,-4.3034,0,0,0,-4.1443,-4.1501,-4.1542,-4.1568,-4.1663,-4.1823,-4.1841,-4.1941,-4.196,-4.2084,-4.2098,-4.2679,-4.2688,-4.2899,-4.3011,-4.3211,0,0,0,-4.1452,-4.1748,-4.1547,-4.1874,-4.1661,-4.1966,-4.1839,-4.2063,-4.2197,-4.2091,-4.2682,-4.2691,-4.2894,-4.2996,-4.3196,-4.339,-4.3474,0,0,-4.1851,-4.1798,-4.1986,-4.1813,-4.2166,-4.1929,-4.2317,-4.2395,-4.2364,-4.2586,-4.26,-4.2918,-4.3009,-4.3208,-4.3921,-4.3988,0,0,0,-4.2129,-4.2266,-4.2349,-4.2479,-4.2545,-4.2614,-4.2628,-4.2658,-4.2843,-4.2487,-4.304,-4.3093,-4.3207,-4.3299,-4.3356,-4.3453,-4.2734,-4.2733,-4.2732,-4.2763,-4.2708,-4.3017,-4.2989,-4.3116,-4.3128,-4.3228,-4.3269,-4.3175,-4.3307,-4.3374,-4.3814,-4.3922,-4.3964,-4.4066,-4.3468,-4.3469,-4.3469,-4.347,-4.3347,-4.3535,-4.3402,-4.3656,-4.3596,-4.3808,-4.3832,-4.3758,-4.3949,-4.3758,-4.3856,-4.3657,-4.404,-4.4126,-4.3487,-4.3484,-4.3482,-4.348,-4.3479,-4.3761,-4.3841,-4.3871,-4.4054,-4.4201,-4.416,-4.435,-4.4287,-4.4229,-4.4326,-4.4393,-4.4389,-4.4381,-4.4361,-4.4363,-4.4364,-4.4366,-4.4367,-4.4368,-4.4181,-4.4206,-4.4374,-4.447,-4.4546,-4.4638,-4.4653,-4.4726,-4.4792,-4.4731,-4.4731,-4.4628,-4.4085,-4.3953,-4.4391,-4.4387,-4.4384,-4.4382,-4.438,-4.4803,-4.4652,-4.4911,-4.4988,-4.5096,-4.5249,-4.5164,-4.532,-4.537,-4.5467,-4.5341,-4.4948,-4.489,-4.4844,-4.4735,-4.5349,-4.5349,-4.5349,-4.5349,-4.5156,-4.5118,-4.5371,-4.5497,-4.5613,-4.5564,-4.5862,-4.5876,-4.5867,-4.5896,-4.5797,-4.5644,-4.56,-4.5568,-4.5506,-4.5404,-4.6174,-4.6175,-4.6176,-4.5538,-4.5509,-4.5775,-4.5763,-4.5843,-4.5914,-4.6193,-4.6345,-4.6303,-4.6208,-4.5919,-4.5884,-4.5637,-4.5558,-4.5463,-4.5369,-4.5179,0,0]},{"header":{"parameterUnit":"m.s-1","parameterCategory":1,"la1":30.2992,"la2":30.254,"lo1":-89.0895,"lo2":-89.0443,"dy":0.0025,"dx":0.0025,"nx":19,"ny":19,"refTime":"2026-04-19T09:00:00:Z","depth":0,"parameterNumber":3,"parameterNumberName":"V-component_of_WINDS"},"data":[0,0,0,-1.6067,-1.6067,-1.607,-1.607,-1.6063,-1.6063,0,0,0,0,0,0,0,0,0,0,0,-1.6063,-1.6063,-1.6067,-1.6067,-1.607,-1.607,-1.6064,-1.6063,0,0,0,0,0,0,0,0,0,0,0,-1.6063,-1.6063,-1.6063,-1.6067,-1.607,-1.607,-1.6064,-1.6065,0,0,0,0,0,0,0,0,0,0,-1.6064,-1.6057,-1.6063,-1.6063,-1.6067,-1.607,-1.607,-1.6065,-1.6065,-1.6059,0,-1.6055,0,-1.6059,-1.6063,-1.6062,0,0,0,-1.607,-1.6057,-1.6061,-1.6063,-1.6067,-1.607,-1.6069,-1.6065,-1.6064,-1.6059,-1.6055,-1.6055,-1.6059,-1.6062,-1.6062,-1.6024,-1.6024,0,0,-1.607,-1.6061,-1.6061,-1.6061,-1.6062,-1.6069,-1.6069,-1.6065,-1.6059,-1.6055,-1.6055,-1.6059,-1.6062,-1.6062,-1.6025,-1.6024,0,0,0,-1.6068,-1.6061,-1.6065,-1.6061,-1.6062,-1.6069,-1.6069,-1.606,-1.6062,-1.6055,-1.6059,-1.6062,-1.6062,-1.6025,-1.6024,-1.6001,0,0,0,-1.6068,-1.606,-1.6065,-1.606,-1.6062,-1.6061,-1.6064,-1.6062,-1.6062,-1.6059,-1.6062,-1.6062,-1.6025,-1.6025,-1.6002,-1.599,0,0,0,-1.6064,-1.6059,-1.6059,-1.6059,-1.606,-1.6061,-1.6063,-1.6062,-1.6064,-1.6062,-1.6062,-1.6026,-1.6025,-1.6003,-1.5992,-1.5976,0,0,0,-1.6057,-1.6039,-1.6058,-1.6038,-1.606,-1.6048,-1.6064,-1.6055,-1.605,-1.6062,-1.6025,-1.6024,-1.6004,-1.5994,-1.5977,-1.5959,-1.5951,0,0,-1.6029,-1.6035,-1.6024,-1.6041,-1.6023,-1.6048,-1.6025,-1.603,-1.6037,-1.6027,-1.6027,-1.6002,-1.5992,-1.5976,-1.5914,-1.5908,0,0,0,-1.6012,-1.6003,-1.6,-1.5996,-1.5999,-1.5999,-1.6008,-1.6009,-1.6001,-1.6031,-1.5993,-1.5987,-1.5978,-1.5969,-1.5964,-1.5955,-1.6021,-1.6021,-1.6021,-1.5959,-1.5969,-1.595,-1.596,-1.5955,-1.5963,-1.5959,-1.5962,-1.5974,-1.5965,-1.5961,-1.5923,-1.5913,-1.5909,-1.5899,-1.5955,-1.5954,-1.5954,-1.5954,-1.5916,-1.5904,-1.592,-1.5907,-1.5916,-1.5905,-1.5911,-1.592,-1.5909,-1.5927,-1.5919,-1.5936,-1.5902,-1.5894,-1.5953,-1.5953,-1.5953,-1.5953,-1.5953,-1.588,-1.5876,-1.5878,-1.5871,-1.5864,-1.5874,-1.5862,-1.5873,-1.5882,-1.5874,-1.587,-1.587,-1.5869,-1.5872,-1.5872,-1.5872,-1.5871,-1.5871,-1.5871,-1.5842,-1.5844,-1.5834,-1.5834,-1.5831,-1.5828,-1.5834,-1.5831,-1.5829,-1.5837,-1.5837,-1.5848,-1.5898,-1.5909,-1.5869,-1.587,-1.587,-1.587,-1.587,-1.5791,-1.5803,-1.5787,-1.5784,-1.5783,-1.5773,-1.5786,-1.5778,-1.5777,-1.577,-1.5782,-1.5818,-1.5825,-1.5829,-1.5838,-1.5782,-1.5782,-1.5782,-1.5782,-1.5759,-1.5763,-1.5747,-1.5741,-1.5736,-1.5745,-1.5723,-1.5727,-1.5732,-1.5731,-1.5741,-1.5754,-1.5758,-1.5762,-1.5768,-1.5776,-1.5706,-1.5706,-1.5706,-1.5726,-1.5731,-1.5711,-1.5717,-1.5716,-1.5714,-1.5693,-1.5682,-1.5692,-1.5703,-1.5729,-1.5733,-1.5754,-1.5761,-1.5772,-1.578,-1.5796,0,0]}]]